This is the latest recevied weather packets stored in our database for station/object FW1079. If no packets are shown the sender has not sent any weather packets the latest 10 day(s).
| Time | Temp. | Humidity | Pressure | Rain* | Wind** | Luminosity | Snow |
|---|---|---|---|---|---|---|---|
| 1777774760 | 8.89° C | 78% | 1021.1 hPa | 0 mm | - | - | - |
| 1777773859 | 8.33° C | 78% | 1021.1 hPa | 0 mm | - | - | - |
| 1777773559 | 8.89° C | 78% | 1021.1 hPa | 0 mm | - | - | - |
| 1777769059 | 9.44° C | 75% | 1021.1 hPa | 0 mm | - | - | - |
| 1777768759 | 9.44° C | 75% | 1021.1 hPa | 0 mm | - | - | - |
| 1777765760 | 10° C | 73% | 1022.1 hPa | 0 mm | - | - | - |
| 1777764260 | 10° C | 75% | 1022.1 hPa | 0 mm | - | - | - |
| 1777763962 | 10° C | 74% | 1022.1 hPa | 0 mm | - | - | - |
| 1777763659 | 10° C | 74% | 1022.1 hPa | 0 mm | - | - | - |
| 1777763059 | 10.56° C | 75% | 1022.1 hPa | 0 mm | - | - | - |
| 1777762762 | 10.56° C | 75% | 1022.1 hPa | 0 mm | - | - | - |
| 1777762459 | 10.56° C | 75% | 1022.1 hPa | 0 mm | - | - | - |
| 1777759459 | 10.56° C | 77% | 1022.1 hPa | 0 mm | - | - | - |
| 1777759159 | 10.56° C | 77% | 1022.1 hPa | 0 mm | - | - | - |
| 1777758559 | 10.56° C | 78% | 1022.1 hPa | 0 mm | - | - | - |
| 1777758259 | 10.56° C | 78% | 1022.1 hPa | 0 mm | - | - | - |
| 1777756759 | 10° C | 79% | 1022.1 hPa | 0 mm | - | - | - |
| 1777755259 | 10° C | 78% | 1022.1 hPa | 0 mm | - | - | - |
| 1777754359 | 10° C | 78% | 1022.1 hPa | 0 mm | - | - | - |
| 1777754059 | 10° C | 77% | 1022.1 hPa | 0 mm | - | - | - |
| 1777751959 | 11.11° C | 76% | 1022.1 hPa | 0 mm | - | - | - |
| 1777751659 | 11.11° C | 76% | 1022.1 hPa | 0 mm | - | - | - |
| 1777751359 | 11.11° C | 77% | 1022.1 hPa | 0 mm | - | - | - |
| 1777749561 | 11.67° C | 74% | 1022.1 hPa | 0 mm | - | - | - |
| 1777748358 | 12.22° C | 73% | 1022.1 hPa | 0 mm | - | - | - |
* Rain latest hour (hover to see other rain measurements)
** Current wind speed in m/s (hover to see current wind gust speed)